Montana Department of Transportation

Main Content

Accidents and Incidents Report

Hourly Weather Roundup

ASUS45 KTFX 292019
RWRMT 
MONTANA HOURLY WEATHER ROUNDUP
NATIONAL WEATHER SERVICE GREAT FALLS MT
119 PM MST THU JAN 29 2015

NOTE: "FAIR" INDICATES FEW OR NO CLOUDS BELOW 12000 FEET WITH NO
SIGNIFICANT WEATHER AND/OR OBSTRUCTIONS TO VISIBILITY.

* THESE STATIONS ARE NOT UNDER NWS QUALITY CONTROL. THEY DO NOT
   REPORT WEATHER SUCH AS PRECIPITATION OR FOG.

MTZ001.007-043-292100-
WEST OF THE DIVIDE
CITY           SKY/WX    TMP DP  RH WIND       PRES   REMARKS
KALISPELL      PTSUNNY   27  25  92 CALM      30.40F 
MISSOULA       PTCLDY    30  27  89 CALM      30.41F 
BUTTE          SUNNY     36  21  54 CALM      30.33F 
MULLAN PASS    SUNNY     36  14  40 W3        30.31F 
* ANACONDA     SUNNY     39  21  48 E3         N/A   
* ESSEX        N/A       33  26  75 N/A        N/A   
* EUREKA APT   PTCLDY    28  27  96 CALM      30.43F 
* HAMILTON APT PTCLDY    37  25  62 N2        30.37F 
* LIBBY APT    PTCLDY    30  28  92 CALM      30.44F 
* LINCOLN      N/A       35  23  62 S2         N/A   
* LOOKOUT PASS N/A       35  27  73 S6         N/A   WCI  30 
* POLSON       N/A       32  29  89 N2         N/A   
* RONAN APT    PTSUNNY   28  28 100 N/A        N/A   
* SEELEY LAKE  N/A       38  23  55 S1         N/A   
* THOMP F APT  PTCLDY    37  25  62 S4         N/A   
* YAAK HILL    N/A       32  30  92 E1         N/A   
--------------------------------

MTZ008-052.055-292100-
SOUTHWEST MONTANA
CITY           SKY/WX    TMP DP  RH WIND       PRES   REMARKS
BOZEMAN        SUNNY     39  27  62 CALM      30.35F 
DILLON         SUNNY     37  23  57 VRB6      30.36F WCI  32 
* W YELLOWSTON SUNNY     31  19  61 N2         N/A   
* THREE FORKS  SUNNY     41  37  86 N/A        N/A   
* BOULDER HILL N/A       35  22  59 SW12       N/A   WCI  27 
* MONIDA PASS  N/A       21  21 100 N6         N/A   WCI  13 
* RAYNOLDS PAS N/A       32  16  52 S4         N/A   
* WHITEHALL    N/A       41  24  51 SW10G16    N/A   
* WISE RIVER   N/A       29  20  69 NW3        N/A   
--------------------------------

MTZ009.010-012-014-046-048-049-054-292100-
EAST SLOPES AND CENTRAL MONTANA
CITY           SKY/WX    TMP DP  RH WIND       PRES   REMARKS
CUT BANK       PTCLDY    39  30  70 SE6       30.23F WCI  35 
GREAT FALLS    PTSUNNY   48  19  32 SW14      30.25F 
HELENA         SUNNY     39  27  62 CALM      30.35F 
MALMSTROM AFB  PTCLDY    48  23  37 S15G21    30.26F 
* CONRAD       PTCLDY    43  28  56 S14        N/A   
* DEARBORN     N/A       47  18  31 S9G20      N/A   
* EAST GLACIER N/A       36  19  50 E1G9       N/A   
* MONARCH      N/A       44  11  26 S5         N/A   
* PENDROY      N/A       43  21  42 SW5        N/A   
* ROGERS PASS  N/A       35  19  52 SE8G16     N/A   WCI  28 
* SWEET GRASS  N/A       30  30 100 S10        N/A   WCI  21 
* WHITE SULPH  N/A       42  25  51 S12G19     N/A   
--------------------------------

MTZ011-013-016-021-035-040-045-047-050-051-292100-
NORTH CENTRAL MONTANA
CITY           SKY/WX    TMP DP  RH WIND       PRES   REMARKS
HAVRE          SUNNY     36  30  79 SE3       30.29F 
LEWISTOWN      SUNNY     46  21  37 NE3       30.27F 
* N BAR RANCH  SUNNY     46  21  37 VRB5      30.27F 
* CHINOOK      SUNNY     37  28  70 CALM      30.29F 
* MALTA APT    SUNNY     39  34  82 NE7        N/A   WCI  34 
* CHESTER      N/A       31  29  92 SW2        N/A   
* DENTON       N/A       46  22  39 S11        N/A   
* GEYSER       N/A       45  18  34 E1         N/A   
* JUDITH GAP   N/A       42  26  53 SE15G20    N/A   
* LOMA         N/A       39  32  76 E6         N/A   WCI  35 
--------------------------------

MTZ017.020-022.027-061-062-292100-
NORTHEAST MONTANA
CITY           SKY/WX    TMP DP  RH WIND       PRES   REMARKS
GLASGOW        FOG       28  27  96 E9        30.36F VSB M1/4 WCI  19 
GLENDIVE       SUNNY     36  27  70 S6        30.41F WCI  31 
JORDAN         SUNNY     45  28  51 S9        30.34F 
SIDNEY         PTCLDY    34  21  59 S5        30.44F WCI  29WOLF POINT     SUNNY     34  28  79 E6        30.40F WCI  29 
* BEAVER HILL  N/A       36  23  59 SW8        N/A   WCI  30 
* CIRCLE       N/A       40  31  70 SE2        N/A   
* LINDSAY DVD  N/A       40  28  62 SE6        N/A   WCI  36 
* NAVAJO       N/A       28  20  72 S7         N/A   WCI  21 
* PLENTYWOOD A PTCLDY    23  18  81 S5        30.41F WCI  16 
* POPLAR APT   PTCLDY    34  25  70 N/A       30.41F 
* SACO         N/A       28  28 100 NE12       N/A   WCI  18 
* SCOBEY APT   PTCLDY    30  19  64 N/A        N/A   
--------------------------------

MTZ028.042-056.058-292100-
SOUTHCENTRAL AND SOUTHEAST MONTANA
CITY           SKY/WX    TMP DP  RH WIND       PRES   REMARKS
BAKER          SUNNY     37  21  52 W8        30.41F WCI  31 
BILLINGS       SUNNY     45  27  49 CALM      30.33F 
LIVINGSTON     SUNNY     48  19  32 W18       30.30F 
MILES CITY     SUNNY     39  28  65 SE9       30.39F WCI  33 
* BIG TIMBER A SUNNY     45  19  35 SW15      30.30F 
* FORSYTH APT  SUNNY     46  18  33 SE9       30.36F 
* LAUREL APT   SUNNY     48  25  41 S15G23     N/A   
* ROUNDUP APT  SUNNY     46  27  48 S9         N/A   
* ALZADA       N/A       42  20  41 W6         N/A   
* HYSHAM       N/A       47  17  30 S6         N/A   
* LAME DEER    N/A       42  16  35 S12        N/A   
* REED POINT   N/A       45  22  40 E2         N/A   
* ROSCOE HILL  N/A       45  16  31 SE2        N/A   
--------------------------------

REGIONAL REPORTS...DAKOTAS
CITY           SKY/WX    TMP DP  RH WIND       PRES   REMARKS
WILLISTON      PTCLDY    28  19  69 SW6       30.44F WCI  21 
DICKINSON      SUNNY     36  19  50 NW7       30.39F WCI  30 
BEACH          SUNNY     36  23  59 W6        30.41F WCI  31 
CROSBY         CLOUDY    23  19  85 SW7       30.45F WCI  15 
TIOGA          CLOUDY    25  23  92 SW3       30.45F 
WATFORD CITY   SUNNY     30  21  69 W6        30.42F WCI  24 
BISMARCK       CLOUDY    28  19  69 NW8       30.48F WCI  20 
GRAND FORKS    PTCLDY    14   3  61 N18       30.53R WCI  -3 
FARGO          CLOUDY    19   9  65 N18       30.49F WCI   4 
BUFFALO SD     SUNNY     41  14  33 NW8       30.35F 
RAPID CITY     SUNNY     45  12  26 N9        30.42F 
--------------------------------

REGIONAL REPORTS...WYOMING/IDAHO/WASHINGTON
CITY           SKY/WX    TMP DP  RH WIND       PRES   REMARKS
GILLETTE       SUNNY     45  19  35 S7        30.37F 
SHERIDAN       SUNNY     48  25  41 SE8       30.34F 
CODY           SUNNY     43  28  56 SE13      30.31F 
YELLOWSTONE LA SUNNY     18  16  92 CALM      30.39F 
SALMON         CLOUDY    25  23  92 CALM      30.43F 
MULLAN PASS    SUNNY     36  14  40 W3        30.31S 
SAND POINT     CLOUDY    32  32 100 CALM      30.43F 
SPOKANE        FOG       32  32 100 N7        30.40F VSB M1/4 WCI  25 
--------------------------------

REGIONAL REPORTS...ALBERTA
CITY           SKY/WX    TMP DP  RH WIND       PRES   REMARKS
CALGARY        PTSUNNY   37  25  62 S9        30.15F WCI  30 
LETHBRIDGE     PTCLDY    52  19  27 W16       30.18F 
MEDICINE HAT   SUNNY     45  34  65 SW8       30.22F 
EDMONTON       FOG       25  25 100 S12       30.18F VSB 2 1/2 WCI  14 
WATERTON GATE  N/A       41  19  41 SW22G29    N/A   
CARDSTON       N/A       48  19  32 W9         N/A   
MILK RIVER     N/A       43  32  65 S12        N/A   
--------------------------------

REGIONAL REPORTS...SASKATCHEWAN
CITY           SKY/WX    TMP DP  RH WIND       PRES   REMARKS
SWIFT CURRENT  SUNNY     28  27  96 S17       30.27F WCI  16 
MOOSE JAW      PTSUNNY   21  16  81 S5        30.41F WCI  14 
REGINA         LGT SNOW  14  10  84 S7        30.44F WCI   4 
VAL MARIE      N/A       34  30  85 SE9        N/A   WCI  27 
ASSINIBOIA     N/A       25  18  75 S6         N/A   WCI  18 
CORONACH       N/A       30  23  75 SE7        N/A   WCI  23 

--------------------------------